This demonstration page uses our WeatherBlox Daily Observations layout. Learn more.

Left ArrowRight Arrow

38.20091, -84.87328

Hourly Observations for February 10, 2018

Temp ( °F °C ) Dew Point ( °F °C ) Humidity (%) Winds ( mph kmh ) Pressure ( in mb ) Visibility ( mi km ) Precip ( " mm )
12:53 am 00:53 Cloudy 50 10 29 -1.7 44 44 S 5 7 30.09 1019 10 16 0.00 0.00
1:53 am 01:53 Cloudy 48 8.9 29 -1.7 48 48 Calm 30.08 1019 10 16 0.00 0.00
2:53 am 02:53 Mostly Cloudy 49 9.4 29 -1.7 46 46 SE 5 7 30.05 1018 10 16 0.00 0.00
3:53 am 03:53 Cloudy 47 8.3 30 -1.1 52 52 SSE 5 7 30.03 1017 10 16 0.00 0.00
4:53 am 04:53 Mostly Cloudy 47 8.3 31 -0.6 54 54 S 5 7 30.03 1017 10 16 0.00 0.00
5:53 am 05:53 Cloudy with Light Rain 49 9.4 39 3.9 69 69 SSW 10 17 30.03 1017 10 16 0.01 0.25
6:53 am 06:53 Cloudy with Light Rain 47 8.3 42 5.6 83 83 S 6 9 30.03 1017 9 14 0.08 2.03
7:53 am 07:53 Cloudy with Mist and Fog 46 7.8 42 5.6 86 86 SSE 6 9 30.03 1017 6 10 0.01 0.25
8:03 am 08:03 Cloudy with Light Rain 46 7.8 42 5.6 86 86 S 3 6 30.06 1018 6 10 0.00 0.03
8:53 am 08:53 Cloudy with Light Rain 46 7.8 43 6.1 89 89 Calm 30.04 1017 5 8 0.01 0.25
9:35 am 09:35 Cloudy with Light Rain 47 8.3 44 6.7 90 90 Calm 30.06 1018 4 6 0.01 0.25
9:53 am 09:53 Cloudy with Light Rain 47 8.3 44 6.7 90 90 Calm 30.03 1017 3 5 0.03 0.76
10:09 am 10:09 Cloudy with Light Rain 47 8.3 44 6.7 90 90 Calm 30.06 1018 2 3 0.01 0.25
10:19 am 10:19 Cloudy with Light Rain 47 8.3 44 6.7 90 90 Calm 30.03 1017 3 4 0.01 0.25
10:25 am 10:25 Cloudy with Light Rain 47 8.3 44 6.7 90 90 Calm 30.03 1017 3 5 0.01 0.25
10:49 am 10:49 Cloudy with Light Rain 46 8 45 7 93 93 Calm 30.03 1017 2 3 0.03 0.76
10:53 am 10:53 Cloudy with Light Rain 47 8.3 44 6.7 90 90 Calm 30.01 1016 3 4 0.03 0.76
11:07 am 11:07 Cloudy with Light Rain 48 8.9 45 7.2 89 89 Calm 30.03 1017 3 5 0.02 0.51
11:29 am 11:29 Cloudy with Light Rain 48 8.9 45 7.2 89 89 Calm 30.03 1017 4 6 0.02 0.51
11:50 am 11:50 Cloudy with Light Rain 48 9 45 7 87 87 Calm 30.03 1017 2 3 0.02 0.51
11:53 am 11:53 Cloudy with Light Rain 48 8.9 45 7.2 89 89 Calm 29.99 1016 2 2 0.02 0.51
12:10 pm 12:10 Cloudy with Mist and Fog 49 9.4 46 7.8 90 90 Calm 29.97 1015 3 4 0.01 0.25
12:25 pm 12:25 Cloudy with Light Rain 49 9.4 46 7.8 90 90 Calm 29.97 1015 1 2 0.02 0.51
12:36 pm 12:36 Cloudy with Light Rain 49 9.4 47 8.3 93 93 Calm 29.97 1015 3 5 0.02 0.51
12:50 pm 12:50 Cloudy with Mist and Fog 50 10 46 8 88 88 Calm 29.97 1015 2 3 0.02 0.51
12:53 pm 12:53 Cloudy with Mist and Fog 50 10 47 8.3 89 89 Calm 29.95 1014 3 4 0.02 0.51
1:11 pm 13:11 Cloudy with Mist and Fog 50 10 47 8.3 89 89 Calm 29.94 1014 1 2 0.00 0.00
1:21 pm 13:21 Cloudy with Mist and Fog 50 10 47 8.3 89 89 NW 3 6 29.94 1014 1 2 0.01 0.25
1:28 pm 13:28 Cloudy with Light Rain 49 9.4 46 7.8 90 90 NNW 5 7 29.94 1014 1 1 0.01 0.25
1:43 pm 13:43 Mostly Cloudy with Light Rain 49 9.4 46 7.8 90 90 NNW 3 6 29.94 1014 1 2 0.03 0.76
1:53 pm 13:53 Cloudy with Light Rain 49 9.4 46 7.8 90 90 NNW 3 6 29.94 1014 1 2 0.04 1.02
2:50 pm 14:50 Cloudy with Light Rain 50 10 46 8 88 88 NNW 5 7 29.94 1014 2 3 0.06 1.52
2:53 pm 14:53 Cloudy with Light Rain 50 10 47 8.3 89 89 NNW 5 7 29.93 1013 2 3 0.06 1.52
2:59 pm 14:59 Cloudy with Light Rain 50 10 47 8.3 89 89 NNW 5 7 29.94 1014 2 3 0.01 0.25
3:24 pm 15:24 Cloudy with Mist and Fog 50 10 47 8.3 89 89 NW 3 6 29.94 1014 3 4 0.02 0.51
3:31 pm 15:31 Cloudy with Mist and Fog 50 10 47 8.3 89 89 Calm 29.94 1014 2 3 0.02 0.51
3:37 pm 15:37 Cloudy with Mist and Fog 50 10 47 8.3 89 89 Calm 29.94 1014 2 3 0.02 0.51
3:48 pm 15:48 Cloudy with Light Rain 50 10 46 8 88 88 Calm 29.94 1014 2 2 0.02 0.51
3:53 pm 15:53 Cloudy with Light Rain 50 10 47 8.3 89 89 Calm 29.93 1014 2 2 0.03 0.76
4:01 pm 16:01 Cloudy with Light Rain 50 10 47 8.3 89 89 Calm 29.94 1014 2 3 0.00 0.03
4:10 pm 16:10 Cloudy with Mist and Fog 50 10 47 8.3 89 89 Calm 29.94 1014 4 6 0.00 0.03
4:17 pm 16:17 Cloudy with Mist and Fog 50 10 47 8.3 89 89 Calm 29.94 1014 5 8 0.00 0.03
4:29 pm 16:29 Cloudy with Light Rain 50 10 47 8.3 89 89 Calm 29.94 1014 6 10 0.00 0.03
4:39 pm 16:39 Cloudy with Light Rain 50 10 47 8.3 89 89 Calm 29.94 1014 3 4 0.01 0.25
4:53 pm 16:53 Cloudy with Light Rain 50 10 47 8.3 89 89 N 3 6 29.94 1014 2 3 0.01 0.25
5:02 pm 17:02 Cloudy with Light Rain 50 10 46 7.8 86 86 NNE 3 6 29.94 1014 2 2 0.01 0.25
5:14 pm 17:14 Cloudy with Light Rain 49 9.4 46 7.8 90 90 N 3 6 29.94 1014 3 4 0.02 0.51
5:33 pm 17:33 Cloudy with Mist and Fog 49 9.4 46 7.8 90 90 NNE 5 7 29.94 1014 4 6 0.02 0.51
5:53 pm 17:53 Cloudy 49 9.4 46 7.8 90 90 N 5 7 29.94 1014 8 13 0.03 0.76
6:07 pm 18:07 Cloudy with Mist and Fog 49 9.4 46 7.8 90 90 N 5 7 29.94 1014 5 8 0.00 0.00
6:53 pm 18:53 Cloudy 47 8.3 44 6.7 90 90 N 7 11 29.96 1014 9 14 0.00 0.03
7:53 pm 19:53 Cloudy with Mist and Fog 45 7.2 41 5 86 86 N 8 13 29.97 1015 4 6 0.01 0.25
8:43 pm 20:43 Cloudy with Mist and Fog 43 6.1 40 4.4 89 89 N 7 11 30.00 1016 3 4 0.01 0.25
8:53 pm 20:53 Cloudy with Mist and Fog 42 5.6 39 3.9 89 89 NNE 7 11 29.96 1015 2 3 0.01 0.25
9:16 pm 21:16 Cloudy with Mist and Fog 42 5.6 39 3.9 89 89 N 8 13 30.00 1016 2 3 0.00 0.00
9:53 pm 21:53 Cloudy with Mist and Fog 41 5 38 3.3 89 89 N 7 11 29.96 1015 2 3 0.00 0.00
10:14 pm 22:14 Cloudy with Mist and Fog 41 5 37 2.8 86 86 NNE 7 11 30.00 1016 2 3 0.00 0.00
10:46 pm 22:46 Cloudy with Mist and Fog 40 4.4 37 2.8 89 89 NNE 6 9 29.97 1015 2 3 0.00 0.00
10:53 pm 22:53 Cloudy with Mist and Fog 40 4.4 37 2.8 89 89 NNE 7 11 29.95 1014 2 3 0.00 0.00
11:53 pm 23:53 Cloudy with Mist and Fog 40 4.4 37 2.8 89 89 NE 8 13 29.93 1013 3 4 0.00 0.00

Powered by AerisWeather